Вернуться в каталог

STARLINK-11508

АктивенСвязьVLEO
NORAD 62515·PAYLOAD·🇺🇸 United States

Запущен Jan 8, 2025 с Cape Canaveral Space Force Station

Loading…

Ближайшие Пролёты (ближайшие 24 часа)

TLE

СвежийSource: CelesTrak SupGP

Эпоха: Sep 14, 2026, 21:12 UTC

1 62515C 25004E   26257.88381944  .00061711  00000+0  47908-3 0  2570
2 62515  43.0008  10.1499 0001701 266.1267 174.4589 15.70819043    16

Отслеживайте STARLINK-11508 в реальном времени с AllMySat

Download on the App Store